Flag for Germany Weather past 2 weeks in Stade, Lower Saxony, Germany

Now
43 °F

Scattered clouds.


Feels Like: 36 °F
Forecast: 37 / 46 °F
Wind: 13 mph from Southwest

Location: Hamburg-Finkenwerder

Current Time: Feb 28, 2015 at 1:38:53 PM

Latest Report: Feb 28, 2015 at 1:20 PM


Visibility: N/A

Pressure: 30.04 "Hg

Humidity: 71%

Dew point: 34 °F

Location of StadeLocation

Historic Weather in Stade — Graph

°F

Stade temperature yesterday

Maximum temperature yesterday: 43 °F (at 12:20 PM)
Minimum temperature yesterday: 37 °F (at 8:50 PM)
Average temperature yesterday: 41 °F

Past Weeks' High & Low Weather Summary

 TemperatureHumidityPressure
High46 °F (Feb 14, 2:50 PM)100% (Feb 13, 12:20 PM)30.69 "Hg (Feb 13, 12:20 PM)
Low27 °F (Feb 17, 7:20 AM)61% (Feb 18, 4:20 PM)29.24 "Hg (Feb 21, 10:50 AM)
Average39 °F90%29.97 "Hg
* Reported Feb 13 12:20 PM — Feb 28 12:20 PM, Stade, Weather by CustomWeather, © 2015

Note: Actual official high and low records may vary slightly from our data, if they occured in-between our weather recording intervals... More about our weather records

Advertising

Stade weather history for previous 24 hours

 ConditionsComfort  
Time TempWeatherWind HumidityBarometerVisibility
12:20 PM
Sat, Feb 28
41 °FScattered clouds.14 mph76%30.04 "HgN/A
11:50 AM41 °FScattered clouds.12 mph81%30.07 "HgN/A
10:50 AM39 °FPassing clouds.9 mph81%30.07 "HgN/A
10:20 AM37 °FScattered clouds.9 mph93%30.09 "HgN/A
9:50 AM36 °FPartly sunny.8 mph100%30.09 "HgN/A
9:20 AM34 °FPartly sunny.7 mph100%30.09 "HgN/A
8:50 AM34 °FPartly sunny.5 mph100%30.09 "HgN/A
8:20 AM32 °FPartly sunny.7 mph100%30.09 "Hg5 mi
7:50 AM32 °FPartly sunny.7 mph100%30.09 "Hg5 mi
8:50 PM
Fri, Feb 27
37 °FClear.10 mph100%30.04 "Hg10 mi
8:20 PM39 °FClear.10 mph100%30.01 "Hg10 mi
7:50 PM39 °FClear.13 mph93%30.01 "Hg10 mi
7:20 PM39 °FClear.12 mph93%30.01 "Hg10 mi
6:50 PM39 °FClear.12 mph93%29.98 "Hg10 mi
6:20 PM41 °FClear.10 mph93%29.98 "Hg10 mi
5:50 PM41 °FPassing clouds.12 mph93%29.95 "HgN/A
5:20 PM43 °FPassing clouds.14 mph87%29.95 "HgN/A
4:50 PM43 °FPassing clouds.14 mph93%29.95 "HgN/A
4:20 PM43 °FScattered clouds.13 mph93%29.92 "HgN/A
3:50 PM43 °FLight rain. Scattered clouds.8 mph93%29.92 "HgN/A
3:20 PM43 °FLight rain. Broken clouds.10 mph93%29.92 "HgN/A
2:50 PM43 °FLight rain. Partly sunny.10 mph93%29.89 "HgN/A
2:20 PM43 °FScattered clouds.9 mph93%29.89 "HgN/A
1:50 PM43 °FLight rain. Partly sunny.9 mph93%29.89 "HgN/A
1:20 PM43 °FLight rain. Broken clouds.10 mph93%29.86 "HgN/A
Weather by CustomWeather, © 2015

See weather overviewHow to use our weather pages